status,avgMeasuredTime,avgSpeed,extID,medianMeasuredTime,TIMESTAMP,vehicleCount,_id,REPORT_ID
OK,114,24,804,114,2014-08-01T07:55:00,1,20746528,185184
OK,83,33,804,83,2014-08-01T08:00:00,2,20746859,185184
OK,98,28,804,98,2014-08-01T08:05:00,3,20747308,185184
OK,98,28,804,98,2014-08-01T08:10:00,3,20747681,185184
OK,114,24,804,114,2014-08-01T08:15:00,2,20748130,185184
OK,98,28,804,98,2014-08-01T08:20:00,3,20748579,185184
OK,108,25,804,108,2014-08-01T08:25:00,8,20749028,185184
OK,102,27,804,102,2014-08-01T08:30:00,8,20749477,185184
OK,84,33,804,84,2014-08-01T08:35:00,4,20749926,185184
OK,108,25,804,108,2014-08-01T08:40:00,4,20750375,185184
OK,92,30,804,92,2014-08-01T08:45:00,2,20750824,185184
OK,102,27,804,102,2014-08-01T08:50:00,2,20751273,185184
OK,125,22,804,125,2014-08-01T08:55:00,1,20751722,185184
OK,81,34,804,81,2014-08-01T09:00:00,3,20752171,185184
OK,87,32,804,87,2014-08-01T09:05:00,5,20752620,185184
OK,91,30,804,91,2014-08-01T09:10:00,5,20753069,185184
OK,113,24,804,113,2014-08-01T09:15:00,5,20753518,185184
OK,70,40,804,70,2014-08-01T09:20:00,3,20753967,185184
OK,87,32,804,87,2014-08-01T09:25:00,3,20754416,185184
OK,104,26,804,104,2014-08-01T09:30:00,2,20754865,185184
OK,104,26,804,104,2014-08-01T09:35:00,0,20755314,185184
OK,104,26,804,104,2014-08-01T09:40:00,0,20755763,185184
OK,104,26,804,104,2014-08-01T09:45:00,0,20756212,185184
OK,90,31,804,90,2014-08-01T09:50:00,2,20756661,185184
OK,124,22,804,124,2014-08-01T09:55:00,5,20757110,185184
OK,129,21,804,129,2014-08-01T10:00:00,4,20757559,185184
OK,127,22,804,127,2014-08-01T10:05:00,6,20758008,185184
OK,98,28,804,98,2014-08-01T10:10:00,5,20758457,185184
OK,98,28,804,98,2014-08-01T10:15:00,7,20758906,185184
OK,123,22,804,123,2014-08-01T10:20:00,5,20759355,185184
OK,61,45,804,61,2014-08-01T10:25:00,5,20759804,185184
OK,61,45,804,61,2014-08-01T10:30:00,5,20760253,185184
OK,111,25,804,111,2014-08-01T10:35:00,1,20760702,185184
OK,98,28,804,98,2014-08-01T10:40:00,4,20761151,185184
OK,89,31,804,89,2014-08-01T10:45:00,4,20761600,185184
OK,87,32,804,87,2014-08-01T10:50:00,2,20762049,185184
OK,103,27,804,103,2014-08-01T10:55:00,4,20762498,185184
OK,159,17,804,159,2014-08-01T11:00:00,2,20762947,185184
OK,129,21,804,129,2014-08-01T11:05:00,1,20763396,185184
OK,129,21,804,129,2014-08-01T11:10:00,1,20763845,185184
OK,129,21,804,129,2014-08-01T11:15:00,0,20764293,185184
OK,104,26,804,104,2014-08-01T11:20:00,2,20764742,185184
OK,96,29,804,96,2014-08-01T11:25:00,3,20765191,185184
OK,89,31,804,89,2014-08-01T11:30:00,3,20765640,185184
OK,88,31,804,88,2014-08-01T11:35:00,6,20766089,185184
OK,95,29,804,95,2014-08-01T11:40:00,9,20766538,185184
OK,107,26,804,107,2014-08-01T11:45:00,5,20766987,185184
OK,102,27,804,102,2014-08-01T11:50:00,2,20767436,185184
OK,80,35,804,80,2014-08-01T11:55:00,1,20767885,185184
OK,103,27,804,103,2014-08-01T12:00:00,2,20768334,185184
OK,98,28,804,98,2014-08-01T12:05:00,6,20768783,185184
OK,85,32,804,85,2014-08-01T12:10:00,7,20769232,185184
OK,76,36,804,76,2014-08-01T12:15:00,1,20769681,185184
OK,76,36,804,76,2014-08-01T12:20:00,4,20770130,185184
OK,73,38,804,73,2014-08-01T12:25:00,5,20770579,185184
OK,119,23,804,119,2014-08-01T12:30:00,4,20771028,185184
OK,109,25,804,109,2014-08-01T12:35:00,8,20771477,185184
OK,86,32,804,86,2014-08-01T12:40:00,6,20771926,185184
OK,82,34,804,82,2014-08-01T12:45:00,4,20772375,185184
OK,70,40,804,70,2014-08-01T12:50:00,2,20772824,185184
OK,70,40,804,70,2014-08-01T12:55:00,0,20773273,185184
OK,92,30,804,92,2014-08-01T13:00:00,3,20773722,185184
OK,92,30,804,92,2014-08-01T13:05:00,5,20774171,185184
OK,114,24,804,114,2014-08-01T13:10:00,5,20774620,185184
OK,93,30,804,93,2014-08-01T13:15:00,6,20775069,185184
OK,93,30,804,93,2014-08-01T13:20:00,6,20775518,185184
OK,116,24,804,116,2014-08-01T13:25:00,5,20775967,185184
OK,116,24,804,116,2014-08-01T13:30:00,6,20776416,185184
OK,120,23,804,120,2014-08-01T13:35:00,5,20776865,185184
OK,119,23,804,119,2014-08-01T13:40:00,4,20777314,185184
OK,93,30,804,93,2014-08-01T13:45:00,2,20777763,185184
OK,103,27,804,103,2014-08-01T13:50:00,2,20778212,185184
OK,66,42,804,66,2014-08-01T13:55:00,3,20778661,185184
OK,97,28,804,97,2014-08-01T14:00:00,5,20779110,185184
OK,111,25,804,111,2014-08-01T14:05:00,4,20779559,185184
OK,85,32,804,85,2014-08-01T14:10:00,2,20780008,185184
OK,85,32,804,85,2014-08-01T14:15:00,1,20780457,185184
OK,98,28,804,98,2014-08-01T14:20:00,2,20780906,185184
OK,112,25,804,112,2014-08-01T14:25:00,1,20781355,185184
OK,112,25,804,112,2014-08-01T14:30:00,0,20781804,185184
OK,106,26,804,106,2014-08-01T14:35:00,3,20782253,185184
OK,106,26,804,106,2014-08-01T14:40:00,3,20782702,185184
OK,113,24,804,113,2014-08-01T14:45:00,2,20783151,185184
OK,91,30,804,91,2014-08-01T14:50:00,4,20783600,185184
OK,76,36,804,76,2014-08-01T14:55:00,5,20784049,185184
OK,106,26,804,106,2014-08-01T15:00:00,4,20784498,185184
OK,70,40,804,70,2014-08-01T15:05:00,2,20784947,185184
OK,70,40,804,70,2014-08-01T15:10:00,2,20785396,185184
OK,90,31,804,90,2014-08-01T15:15:00,3,20785845,185184
OK,90,31,804,90,2014-08-01T15:20:00,3,20786294,185184
OK,73,38,804,73,2014-08-01T15:25:00,1,20786743,185184
OK,73,38,804,73,2014-08-01T15:30:00,1,20787192,185184
OK,94,29,804,94,2014-08-01T15:35:00,1,20787641,185184
OK,94,29,804,94,2014-08-01T15:40:00,0,20788090,185184
OK,94,29,804,94,2014-08-01T15:45:00,0,20788539,185184
OK,94,29,804,94,2014-08-01T15:50:00,0,20788988,185184
OK,74,37,804,74,2014-08-01T15:55:00,2,20789437,185184
OK,71,39,804,71,2014-08-01T16:00:00,3,20789886,185184
OK,88,31,804,88,2014-08-01T16:05:00,2,20790335,185184
OK,109,25,804,109,2014-08-01T16:10:00,4,20790784,185184
OK,88,31,804,88,2014-08-01T16:15:00,2,20791233,185184
OK,104,26,804,104,2014-08-01T16:20:00,0,20791682,185184
OK,84,33,804,84,2014-08-01T16:25:00,1,20792131,185184
OK,94,29,804,94,2014-08-01T16:30:00,2,20792580,185184
OK,119,23,804,119,2014-08-01T16:35:00,1,20793029,185184
OK,119,23,804,119,2014-08-01T16:40:00,0,20793478,185184
OK,119,23,804,119,2014-08-01T16:45:00,0,20793927,185184
OK,137,20,804,137,2014-08-01T16:50:00,1,20794376,185184
OK,137,20,804,137,2014-08-01T16:55:00,1,20794825,185184
OK,106,26,804,106,2014-08-01T17:00:00,1,20795274,185184
OK,106,26,804,106,2014-08-01T17:05:00,0,20795723,185184
OK,106,26,804,106,2014-08-01T17:10:00,0,20796172,185184
OK,38,73,804,38,2014-08-01T17:15:00,3,20796621,185184
OK,38,73,804,38,2014-08-01T17:20:00,3,20797070,185184
OK,36,77,804,36,2014-08-01T17:25:00,0,20797519,185184
OK,36,77,804,36,2014-08-01T17:30:00,0,20797968,185184
OK,59,47,804,59,2014-08-01T17:35:00,1,20798417,185184
OK,59,47,804,59,2014-08-01T17:40:00,1,20798866,185184
OK,36,77,804,36,2014-08-01T17:45:00,0,20799315,185184
OK,117,23,804,117,2014-08-01T17:50:00,1,20799764,185184
OK,117,23,804,117,2014-08-01T17:55:00,1,20800213,185184
OK,117,23,804,117,2014-08-01T18:00:00,0,20800662,185184
OK,135,20,804,135,2014-08-01T18:05:00,2,20801111,185184
OK,135,20,804,135,2014-08-01T18:10:00,2,20801560,185184
OK,145,19,804,145,2014-08-01T18:15:00,0,20802009,185184
OK,64,43,804,64,2014-08-01T18:20:00,1,20802458,185184
OK,64,43,804,64,2014-08-01T18:25:00,1,20802907,185184
OK,136,20,804,136,2014-08-01T18:30:00,1,20803356,185184
OK,136,20,804,136,2014-08-01T18:35:00,1,20803805,185184
OK,136,20,804,136,2014-08-01T18:40:00,0,20804254,185184
OK,136,20,804,136,2014-08-01T18:45:00,0,20804703,185184
OK,136,20,804,136,2014-08-01T18:50:00,0,20805152,185184
OK,136,20,804,136,2014-08-01T18:55:00,0,20805601,185184
OK,136,20,804,136,2014-08-01T19:00:00,0,20806050,185184
OK,136,20,804,136,2014-08-01T19:05:00,0,20806499,185184
OK,136,20,804,136,2014-08-01T19:10:00,0,20806948,185184
OK,136,20,804,136,2014-08-01T19:15:00,0,20807397,185184
OK,136,20,804,136,2014-08-01T19:20:00,0,20807846,185184
OK,136,20,804,136,2014-08-01T19:25:00,0,20808295,185184
OK,136,20,804,136,2014-08-01T19:30:00,0,20808744,185184
OK,136,20,804,136,2014-08-01T19:35:00,0,20809193,185184
OK,136,20,804,136,2014-08-01T19:40:00,0,20809642,185184
OK,136,20,804,136,2014-08-01T19:45:00,0,20810091,185184
OK,136,20,804,136,2014-08-01T19:50:00,0,20810540,185184
OK,58,48,804,58,2014-08-01T19:55:00,1,20810989,185184
OK,67,41,804,67,2014-08-01T22:00:00,0,20816718,185184
OK,67,41,804,67,2014-08-01T22:05:00,0,20817167,185184
OK,67,41,804,67,2014-08-01T22:10:00,0,20817489,185184
OK,67,41,804,67,2014-08-02T00:00:00,0,20823157,185184
OK,67,41,804,67,2014-08-02T00:05:00,0,20823606,185184
OK,67,41,804,67,2014-08-02T00:10:00,0,20824055,185184
OK,67,41,804,67,2014-08-02T00:15:00,0,20824504,185184
OK,67,41,804,67,2014-08-02T00:20:00,0,20824953,185184
OK,110,25,804,110,2014-08-02T00:25:00,0,20825402,185184
OK,110,25,804,110,2014-08-02T00:30:00,0,20825851,185184
OK,110,25,804,110,2014-08-02T00:35:00,0,20826300,185184
OK,110,25,804,110,2014-08-02T00:40:00,0,20826749,185184
OK,110,25,804,110,2014-08-02T00:45:00,0,20827198,185184
OK,110,25,804,110,2014-08-02T00:50:00,0,20827647,185184
OK,110,25,804,110,2014-08-02T00:55:00,0,20828096,185184
OK,110,25,804,110,2014-08-02T01:00:00,0,20828545,185184
OK,110,25,804,110,2014-08-02T01:05:00,0,20828994,185184
OK,110,25,804,110,2014-08-02T01:10:00,0,20829443,185184
OK,110,25,804,110,2014-08-02T01:15:00,0,20829892,185184
OK,110,25,804,110,2014-08-02T01:20:00,0,20830341,185184
OK,110,25,804,110,2014-08-02T01:25:00,0,20830790,185184
OK,110,25,804,110,2014-08-02T01:30:00,0,20831239,185184
OK,110,25,804,110,2014-08-02T01:35:00,0,20831688,185184
OK,110,25,804,110,2014-08-02T01:40:00,0,20832137,185184
OK,110,25,804,110,2014-08-02T01:45:00,0,20832586,185184
OK,110,25,804,110,2014-08-02T01:50:00,0,20833035,185184
OK,110,25,804,110,2014-08-02T01:55:00,0,20833484,185184
OK,110,25,804,110,2014-08-02T02:00:00,0,20833933,185184
OK,110,25,804,110,2014-08-02T02:05:00,0,20834382,185184
OK,110,25,804,110,2014-08-02T02:10:00,0,20834831,185184
OK,110,25,804,110,2014-08-02T02:15:00,0,20835280,185184
OK,110,25,804,110,2014-08-02T02:20:00,0,20835729,185184
OK,110,25,804,110,2014-08-02T02:25:00,0,20836178,185184
OK,110,25,804,110,2014-08-02T02:30:00,0,20836627,185184
OK,110,25,804,110,2014-08-02T02:35:00,0,20837076,185184
OK,110,25,804,110,2014-08-02T02:40:00,0,20837525,185184
OK,110,25,804,110,2014-08-02T02:45:00,0,20837974,185184
OK,110,25,804,110,2014-08-02T02:50:00,0,20838423,185184
OK,110,25,804,110,2014-08-02T02:55:00,0,20838872,185184
OK,110,25,804,110,2014-08-02T03:00:00,0,20839321,185184
OK,110,25,804,110,2014-08-02T03:05:00,0,20839770,185184
OK,110,25,804,110,2014-08-02T03:10:00,0,20840219,185184
OK,110,25,804,110,2014-08-02T03:15:00,0,20840668,185184
OK,110,25,804,110,2014-08-02T03:20:00,0,20841117,185184
OK,110,25,804,110,2014-08-02T03:25:00,0,20841566,185184
OK,110,25,804,110,2014-08-02T03:30:00,0,20842015,185184
OK,110,25,804,110,2014-08-02T03:35:00,0,20842464,185184
OK,110,25,804,110,2014-08-02T03:40:00,0,20842913,185184
OK,110,25,804,110,2014-08-02T03:45:00,0,20843362,185184
OK,110,25,804,110,2014-08-02T03:50:00,0,20843811,185184
OK,110,25,804,110,2014-08-02T03:55:00,0,20844260,185184
OK,110,25,804,110,2014-08-02T04:20:00,0,20845706,185184
OK,110,25,804,110,2014-08-02T04:25:00,0,20846262,185184
OK,110,25,804,110,2014-08-02T04:35:00,0,20846629,185184
OK,110,25,804,110,2014-08-02T04:45:00,0,20847271,185184
OK,110,25,804,110,2014-08-02T04:50:00,0,20847637,185184
OK,172,16,804,172,2014-08-02T05:40:00,0,20850498,185184
OK,172,16,804,172,2014-08-02T05:50:00,0,20851157,185184
OK,172,16,804,172,2014-08-02T06:00:00,0,20851714,185184
OK,172,16,804,172,2014-08-02T06:05:00,0,20852163,185184
OK,172,16,804,172,2014-08-02T06:10:00,0,20852612,185184
OK,84,33,804,84,2014-08-02T06:15:00,1,20853061,185184
OK,84,33,804,84,2014-08-02T06:20:00,0,20853510,185184
OK,84,33,804,84,2014-08-02T06:25:00,0,20853959,185184
OK,94,29,804,94,2014-08-02T06:30:00,2,20854408,185184
OK,121,23,804,121,2014-08-02T06:35:00,1,20854857,185184
OK,126,22,804,126,2014-08-02T06:40:00,1,20855306,185184
OK,126,22,804,126,2014-08-02T06:45:00,0,20855755,185184
OK,126,22,804,126,2014-08-02T06:50:00,0,20856204,185184
OK,126,22,804,126,2014-08-02T06:55:00,0,20856653,185184
OK,126,22,804,126,2014-08-02T07:00:00,0,20857102,185184
OK,126,22,804,126,2014-08-02T07:05:00,0,20857551,185184
OK,88,31,804,88,2014-08-02T07:10:00,2,20858000,185184
OK,98,28,804,98,2014-08-02T07:15:00,3,20858449,185184
OK,113,24,804,113,2014-08-02T07:20:00,1,20858898,185184
OK,113,24,804,113,2014-08-02T07:25:00,0,20859347,185184
OK,93,30,804,93,2014-08-02T07:30:00,2,20859796,185184
OK,93,30,804,93,2014-08-02T07:35:00,2,20860245,185184
OK,114,24,804,114,2014-08-02T07:40:00,2,20860694,185184
OK,114,24,804,114,2014-08-02T07:45:00,2,20861143,185184
OK,114,24,804,114,2014-08-02T07:50:00,0,20861592,185184
OK,131,21,804,131,2014-08-02T07:55:00,1,20862041,185184
OK,134,20,804,134,2014-08-02T08:00:00,2,20862490,185184
OK,138,20,804,138,2014-08-02T08:05:00,1,20862939,185184
OK,90,31,804,90,2014-08-02T08:10:00,2,20863388,185184
OK,90,31,804,90,2014-08-02T08:15:00,2,20863837,185184
OK,132,21,804,132,2014-08-02T08:20:00,1,20864286,185184
OK,132,21,804,132,2014-08-02T08:25:00,1,20864735,185184
OK,126,22,804,126,2014-08-02T08:30:00,1,20865184,185184
OK,119,23,804,119,2014-08-02T08:35:00,2,20865633,185184
OK,105,26,804,105,2014-08-02T08:40:00,2,20866082,185184
OK,117,23,804,117,2014-08-02T08:45:00,2,20866531,185184
OK,135,20,804,135,2014-08-02T08:50:00,1,20866980,185184
OK,93,30,804,93,2014-08-02T08:55:00,2,20867429,185184
OK,132,21,804,132,2014-08-02T09:00:00,2,20867878,185184
OK,125,22,804,125,2014-08-02T09:05:00,0,20868327,185184
OK,108,25,804,108,2014-08-02T09:10:00,2,20868776,185184
OK,82,34,804,82,2014-08-02T09:15:00,1,20869225,185184
OK,91,30,804,91,2014-08-02T09:20:00,1,20869674,185184
OK,81,34,804,81,2014-08-02T09:25:00,2,20870123,185184
OK,81,34,804,81,2014-08-02T09:30:00,0,20870572,185184
OK,81,34,804,81,2014-08-02T09:35:00,0,20871021,185184
OK,81,34,804,81,2014-08-02T09:40:00,1,20871470,185184
OK,88,31,804,88,2014-08-02T09:45:00,2,20871919,185184
OK,95,29,804,95,2014-08-02T09:50:00,3,20872368,185184
OK,131,21,804,131,2014-08-02T09:55:00,3,20872817,185184
OK,121,23,804,121,2014-08-02T10:00:00,1,20873266,185184
OK,127,22,804,127,2014-08-02T10:05:00,3,20873715,185184
OK,119,23,804,119,2014-08-02T10:10:00,4,20874164,185184
OK,112,25,804,112,2014-08-02T10:15:00,3,20874613,185184
OK,141,19,804,141,2014-08-02T10:20:00,1,20875062,185184
OK,120,23,804,120,2014-08-02T10:25:00,1,20875511,185184
OK,119,23,804,119,2014-08-02T10:30:00,2,20875960,185184
OK,114,24,804,114,2014-08-02T10:35:00,5,20876409,185184
OK,114,24,804,114,2014-08-02T10:40:00,3,20876858,185184
OK,103,27,804,103,2014-08-02T10:45:00,2,20877307,185184
OK,103,27,804,103,2014-08-02T10:50:00,2,20877756,185184
OK,154,18,804,154,2014-08-02T10:55:00,1,20878205,185184
OK,154,18,804,154,2014-08-02T11:00:00,1,20878654,185184
OK,123,22,804,123,2014-08-02T11:05:00,2,20879103,185184
OK,121,23,804,121,2014-08-02T11:10:00,2,20879552,185184
OK,63,44,804,63,2014-08-02T11:15:00,5,20880001,185184
OK,63,44,804,63,2014-08-02T11:20:00,5,20880450,185184
OK,108,25,804,108,2014-08-02T11:25:00,1,20880899,185184
OK,108,25,804,108,2014-08-02T11:30:00,1,20881348,185184
OK,117,23,804,117,2014-08-02T11:35:00,2,20881797,185184
OK,130,21,804,130,2014-08-02T11:40:00,1,20882246,185184
OK,77,36,804,77,2014-08-02T11:45:00,2,20882695,185184
OK,77,36,804,77,2014-08-02T11:50:00,2,20883144,185184
OK,104,26,804,104,2014-08-02T11:55:00,2,20883593,185184
OK,77,36,804,77,2014-08-02T12:00:00,3,20884042,185184
OK,109,25,804,109,2014-08-02T12:05:00,4,20884491,185184
OK,130,21,804,130,2014-08-02T12:10:00,3,20884940,185184
OK,90,31,804,90,2014-08-02T12:15:00,3,20885389,185184
OK,89,31,804,89,2014-08-02T12:20:00,4,20885838,185184
OK,87,32,804,87,2014-08-02T12:25:00,2,20886287,185184
OK,108,25,804,108,2014-08-02T12:30:00,1,20886736,185184
OK,91,30,804,91,2014-08-02T12:35:00,1,20887185,185184
OK,91,30,804,91,2014-08-02T12:40:00,1,20887634,185184
OK,126,22,804,126,2014-08-02T12:45:00,3,20888083,185184
OK,121,23,804,121,2014-08-02T12:50:00,4,20888532,185184
OK,122,22,804,122,2014-08-02T12:55:00,2,20888981,185184
OK,128,21,804,128,2014-08-02T13:00:00,1,20889430,185184
OK,128,21,804,128,2014-08-02T13:05:00,0,20889879,185184
OK,128,21,804,128,2014-08-02T13:10:00,0,20890328,185184
OK,128,21,804,128,2014-08-02T13:15:00,0,20890777,185184
OK,110,25,804,110,2014-08-02T13:20:00,1,20891226,185184
OK,114,24,804,114,2014-08-02T13:25:00,1,20891675,185184
OK,114,24,804,114,2014-08-02T13:30:00,1,20892124,185184
OK,137,20,804,137,2014-08-02T13:35:00,1,20892573,185184
OK,137,20,804,137,2014-08-02T13:40:00,0,20893022,185184
OK,112,25,804,112,2014-08-02T13:45:00,1,20893471,185184
OK,120,23,804,120,2014-08-02T13:50:00,2,20893920,185184
OK,129,21,804,129,2014-08-02T13:55:00,1,20894369,185184
OK,129,21,804,129,2014-08-02T14:00:00,0,20894818,185184
OK,114,24,804,114,2014-08-02T14:05:00,1,20895267,185184
OK,114,24,804,114,2014-08-02T14:10:00,1,20895716,185184
OK,114,24,804,114,2014-08-02T14:15:00,0,20896165,185184
OK,127,22,804,127,2014-08-02T14:20:00,2,20896614,185184
OK,130,21,804,130,2014-08-02T14:25:00,4,20897063,185184
OK,130,21,804,130,2014-08-02T14:30:00,2,20897512,185184
OK,130,21,804,130,2014-08-02T14:35:00,0,20897961,185184
OK,81,34,804,81,2014-08-02T14:40:00,1,20898410,185184
OK,94,29,804,94,2014-08-02T14:45:00,2,20898859,185184
OK,108,25,804,108,2014-08-02T14:50:00,0,20899308,185184
OK,131,21,804,131,2014-08-02T14:55:00,1,20899757,185184
OK,131,21,804,131,2014-08-02T15:00:00,1,20900206,185184
OK,117,23,804,117,2014-08-02T15:05:00,1,20900655,185184
OK,97,28,804,97,2014-08-02T15:10:00,2,20901104,185184
OK,132,21,804,132,2014-08-02T15:15:00,1,20901553,185184
OK,132,21,804,132,2014-08-02T15:20:00,0,20902002,185184
OK,132,21,804,132,2014-08-02T15:25:00,0,20902451,185184
OK,100,28,804,100,2014-08-02T15:30:00,2,20902900,185184
OK,100,28,804,100,2014-08-02T15:35:00,2,20903349,185184
OK,72,38,804,72,2014-08-02T15:40:00,1,20903798,185184
OK,105,26,804,105,2014-08-02T15:45:00,2,20904247,185184
OK,139,20,804,139,2014-08-02T15:50:00,1,20904696,185184
OK,139,20,804,139,2014-08-02T15:55:00,0,20905145,185184
OK,98,28,804,98,2014-08-02T16:00:00,1,20905594,185184
OK,79,35,804,79,2014-08-02T16:05:00,2,20906043,185184
OK,67,41,804,67,2014-08-02T16:10:00,2,20906492,185184
OK,74,37,804,74,2014-08-02T16:15:00,1,20906941,185184
OK,106,26,804,106,2014-08-02T16:20:00,1,20907390,185184
OK,133,21,804,133,2014-08-02T16:25:00,1,20907839,185184
OK,134,20,804,134,2014-08-02T16:30:00,1,20908288,185184
OK,134,20,804,134,2014-08-02T16:35:00,1,20908737,185184
OK,134,20,804,134,2014-08-02T16:40:00,0,20909186,185184
OK,134,20,804,134,2014-08-02T16:45:00,0,20909635,185184
OK,120,23,804,120,2014-08-02T16:50:00,1,20910084,185184
OK,129,21,804,129,2014-08-02T16:55:00,1,20910533,185184
OK,129,21,804,129,2014-08-02T17:00:00,0,20910982,185184
OK,129,21,804,129,2014-08-02T17:05:00,0,20911431,185184
OK,129,21,804,129,2014-08-02T17:10:00,0,20911880,185184
OK,129,21,804,129,2014-08-02T17:15:00,0,20912329,185184
OK,129,21,804,129,2014-08-02T17:20:00,0,20912778,185184
OK,129,21,804,129,2014-08-02T17:25:00,0,20913227,185184
OK,129,21,804,129,2014-08-02T17:30:00,0,20913676,185184
OK,133,21,804,133,2014-08-02T17:35:00,3,20914125,185184
OK,133,21,804,133,2014-08-02T17:40:00,3,20914574,185184
OK,122,22,804,122,2014-08-02T17:45:00,1,20915023,185184
OK,122,22,804,122,2014-08-02T17:50:00,1,20915472,185184
OK,55,50,804,55,2014-08-02T17:55:00,1,20915921,185184
OK,55,50,804,55,2014-08-02T18:00:00,0,20916370,185184
OK,55,50,804,55,2014-08-02T18:05:00,0,20916819,185184
OK,55,50,804,55,2014-08-02T18:10:00,0,20917268,185184
OK,55,50,804,55,2014-08-02T18:15:00,0,20917717,185184
OK,113,24,804,113,2014-08-02T18:20:00,2,20918166,185184
OK,113,24,804,113,2014-08-02T18:25:00,2,20918615,185184
OK,116,24,804,116,2014-08-02T18:30:00,0,20919064,185184
OK,116,24,804,116,2014-08-02T18:35:00,0,20919513,185184
OK,130,21,804,130,2014-08-02T18:40:00,1,20919962,185184
OK,130,21,804,130,2014-08-02T18:45:00,1,20920411,185184
OK,130,21,804,130,2014-08-02T18:50:00,0,20920860,185184
OK,130,21,804,130,2014-08-02T18:55:00,0,20921309,185184
OK,112,25,804,112,2014-08-02T19:00:00,1,20921758,185184
OK,112,25,804,112,2014-08-02T19:05:00,1,20922207,185184
OK,112,25,804,112,2014-08-02T19:10:00,0,20922656,185184
OK,112,25,804,112,2014-08-02T19:15:00,0,20923105,185184
OK,112,25,804,112,2014-08-02T19:20:00,0,20923554,185184
OK,123,22,804,123,2014-08-02T19:25:00,0,20924003,185184
OK,131,21,804,131,2014-08-02T19:30:00,1,20924452,185184
OK,118,23,804,118,2014-08-02T19:35:00,2,20924901,185184
OK,103,27,804,103,2014-08-02T19:40:00,3,20925350,185184
OK,103,27,804,103,2014-08-02T19:45:00,1,20925799,185184
OK,103,27,804,103,2014-08-02T19:50:00,0,20926248,185184
OK,103,27,804,103,2014-08-02T19:55:00,0,20926697,185184
OK,72,38,804,72,2014-08-02T20:00:00,1,20927146,185184
OK,91,30,804,91,2014-08-02T20:05:00,2,20927595,185184
OK,111,25,804,111,2014-08-02T20:10:00,0,20928044,185184
OK,130,21,804,130,2014-08-02T20:15:00,2,20928493,185184
OK,129,21,804,129,2014-08-02T20:20:00,1,20928942,185184
OK,75,37,804,75,2014-08-02T20:25:00,1,20929391,185184
OK,75,37,804,75,2014-08-02T20:30:00,0,20929840,185184
OK,75,37,804,75,2014-08-02T20:35:00,0,20930289,185184
OK,75,37,804,75,2014-08-02T20:40:00,0,20930738,185184
OK,75,37,804,75,2014-08-02T20:45:00,0,20931187,185184
OK,75,37,804,75,2014-08-02T20:50:00,0,20931636,185184
OK,113,24,804,113,2014-08-02T20:55:00,1,20932085,185184
OK,124,22,804,124,2014-08-02T21:00:00,1,20932534,185184
OK,124,22,804,124,2014-08-02T21:05:00,0,20932983,185184
OK,85,32,804,85,2014-08-02T21:10:00,1,20933432,185184
OK,85,32,804,85,2014-08-02T21:15:00,1,20933881,185184
OK,85,32,804,85,2014-08-02T21:20:00,0,20934330,185184
OK,85,32,804,85,2014-08-02T21:25:00,0,20934779,185184
OK,40,70,804,40,2014-08-02T21:30:00,1,20935228,185184
OK,40,70,804,40,2014-08-02T21:35:00,1,20935677,185184
OK,40,70,804,40,2014-08-02T21:40:00,0,20936126,185184
OK,40,70,804,40,2014-08-02T21:45:00,0,20936575,185184
OK,40,70,804,40,2014-08-02T21:50:00,0,20937024,185184
OK,40,70,804,40,2014-08-02T21:55:00,0,20937473,185184
OK,40,70,804,40,2014-08-02T22:00:00,0,20937922,185184
OK,40,70,804,40,2014-08-02T22:05:00,0,20938371,185184
OK,40,70,804,40,2014-08-02T22:10:00,0,20938820,185184
OK,40,70,804,40,2014-08-02T22:15:00,0,20939269,185184
OK,40,70,804,40,2014-08-02T22:20:00,0,20939718,185184
OK,40,70,804,40,2014-08-02T22:25:00,0,20940167,185184
OK,40,70,804,40,2014-08-02T22:30:00,0,20940616,185184
OK,40,70,804,40,2014-08-02T22:35:00,0,20941065,185184
OK,40,70,804,40,2014-08-02T22:40:00,0,20941514,185184
OK,40,70,804,40,2014-08-02T22:45:00,0,20941963,185184
OK,40,70,804,40,2014-08-02T22:50:00,0,20942412,185184
OK,91,30,804,91,2014-08-02T22:55:00,1,20942861,185184
OK,91,30,804,91,2014-08-02T23:00:00,1,20943310,185184
OK,91,30,804,91,2014-08-02T23:10:00,0,20943759,185184
OK,90,31,804,90,2014-08-02T23:15:00,1,20944208,185184
OK,90,31,804,90,2014-08-02T23:20:00,0,20944657,185184
OK,90,31,804,90,2014-08-02T23:25:00,0,20945106,185184
OK,108,25,804,108,2014-08-02T23:30:00,1,20945555,185184
OK,108,25,804,108,2014-08-02T23:35:00,0,20946004,185184
OK,108,25,804,108,2014-08-02T23:40:00,0,20946453,185184
OK,108,25,804,108,2014-08-02T23:45:00,0,20946902,185184
OK,108,25,804,108,2014-08-02T23:50:00,0,20947351,185184
OK,108,25,804,108,2014-08-02T23:55:00,0,20947800,185184
OK,108,25,804,108,2014-08-03T00:00:00,0,20948249,185184
OK,70,40,804,70,2014-08-03T00:05:00,1,20948698,185184
OK,81,34,804,81,2014-08-03T00:10:00,2,20949147,185184
OK,93,30,804,93,2014-08-03T00:15:00,0,20949595,185184
OK,93,30,804,93,2014-08-03T00:20:00,0,20950044,185184
OK,93,30,804,93,2014-08-03T00:25:00,0,20950493,185184
OK,93,30,804,93,2014-08-03T00:30:00,0,20950942,185184